Regional Weather Roundup
Issued by NWS

Home | Current Version | Previous Version | Graphics & Text | Print | Product List | Glossary On
Versions: 1 2 3 4 5 6 7 8 9 10 11 12 13 14 15 16 17 18 19 20 21 22 23 24 25 26 27 28 29 30 31 32 33 34 35 36 37 38 39 40 41 42 43 44 45 46 47 48 49 50
000
ASUS43 KDMX 271107
RWRIA

WEATHER ROUNDUP FOR IOWA
NATIONAL WEATHER SERVICE DES MOINES IA
600 AM CDT MON APR 27 2015

NOTE: "FAIR" INDICATES FEW OR NO CLOUDS BELOW 12,000 FEET WITH NO
SIGNIFICANT WEATHER AND/OR OBSTRUCTIONS TO VISIBILITY.

* - THESE STATIONS ARE NOT NWS STATIONS...THUS NOT UNDER NWS
QUALITY CONTROL.  THEY ALSO DO NOT REPORT WEATHER SUCH
AS PRECIPITATION OR FOG.

IAZ001>003-012>014-020>022-031>034-043>046-271200-
   NORTHWEST IOWA

CITY           SKY/WX    TMP DP  RH WIND       PRES   REMARKS
CARROLL *      CLEAR     36  32  87 NW6       30.16R WCI  31
CHEROKEE *       N/A     34  34 100 CALM      30.18R
DENISON *      CLEAR     34  34 100 CALM      30.16R
LE MARS *      CLEAR     34  30  86 CALM      30.20R
ORANGE CITY *  CLEAR     39  28  65 CALM      30.18R
SHELDON *      CLEAR     32  27  80 CALM      30.18R
SIOUX CITY     PTCLDY    36  30  79 CALM      30.18R
SPENCER        CLEAR     32  26  78 W3        30.18R
STORM LAKE *   CLEAR     39  30  70 N6        30.18R WCI  35
$$

IAZ055>058-069>071-079>083-090>094-271200-
   SOUTHWEST IOWA

CITY           SKY/WX    TMP DP  RH WIND       PRES   REMARKS
ATLANTIC *     CLEAR     32  32 100 NE3       30.16R
AUDUBON *      CLEAR     32  28  86 CALM      30.17R
CLARINDA *     CLEAR     36  36 100 N7        30.16R WCI  30
COUNCIL BLFS * CLEAR     39  36  87 N8        30.16S WCI  34
CRESTON *      CLEAR     41  30  65 N8        30.14R
HARLAN  *      CLEAR     36  36 100 N3        30.20R
LAMONI         CLEAR     39  31  72 N6        30.12R WCI  35
RED OAK *      CLEAR     36  34  93 CALM      30.16R
SHENANDOAH *   CLEAR     34  34 100 NE5       30.16R WCI  30
$$

IAZ047>049-059>061-072>074-084-271200-
   CENTRAL IOWA

CITY           SKY/WX    TMP DP  RH WIND       PRES   REMARKS
AMES           CLEAR     36  29  75 NW5       30.15R WCI  32
ANKENY *       CLEAR     34  32  93 N7        30.15R WCI  28
CHARITON *     CLEAR     37  34  87 NW6       30.13R WCI  33
DES MOINES     PTCLDY    40  32  73 NW7       30.15R
GRINNELL*      CLEAR     34  28  80 NW6       30.14R WCI  29
KNOXVILLE *    CLEAR     36  32  87 NW7       30.12R WCI  30
MARSHALLTOWN   CLEAR     33  28  81 NW7       30.13R WCI  27
PELLA *        CLEAR     37  34  87 N6        30.14R WCI  33
PERRY *          N/A     32  32 100 NW5       30.16R WCI  27
$$

IAZ004>006-015-016-023>025-035-036-271200-
   NORTH CENTRAL IOWA

CITY           SKY/WX    TMP DP  RH WIND       PRES   REMARKS
ALGONA *       CLEAR     37  28  70 N6        30.17R WCI  33
CLARION *      CLEAR     36  30  80 CALM      30.16R
ESTHERVILLE    CLEAR     32  23  69 N6        30.17R WCI  26
FORT DODGE *   CLEAR     34  27  75 CALM      30.17R
MASON CITY     CLEAR     34  27  75 N6        30.17R WCI  29
FOREST CITY *  CLEAR     34  28  80 CALM      30.16R
IOWA FALLS *     N/A     36  28  75 CALM      30.16R
$$

IAZ007>011-017>019-026>030-037>042-050>054-066-271200-
   NORTHEAST IOWA

CITY           SKY/WX    TMP DP  RH WIND       PRES   REMARKS
CEDAR RAPIDS   CLEAR     38  31  76 NE7       30.10R WCI  33
CHARLES CITY * CLEAR     37  28  70 NE8       30.15R WCI  31
CLINTON *      CLEAR     34  27  75 E9        30.14R WCI  26
DECORAH *      CLEAR     39  27  60 NE6       30.13R WCI  35
DUBUQUE        CLEAR     33  28  81 NE5       30.12R WCI  29
MONTICELLO *   CLEAR     34  32  93 CALM      30.13R
OELWEIN *      CLEAR     37  30  75 NE8       30.14R WCI  31
WATERLOO       CLEAR     33  27  78 N3        30.13R
$$

IAZ064-065-067-068-078-271200-
   EAST CENTRAL IOWA

CITY           SKY/WX    TMP DP  RH WIND       PRES   REMARKS
DAVENPORT      CLEAR     35  29  78 E7        30.12R WCI  29
IOWA CITY      CLEAR     36  31  82 CALM      30.12R
MT. PLEASANT * CLEAR     39  32  75 NW3       30.11R
MUSCATINE *    CLEAR     36  30  80 N3        30.12R
QUAD CITIES    CLEAR     35  31  85 CALM      30.11R
$$

IAZ062-063-075>077-085>089-095>099-271200-
   SOUTHEAST IOWA

CITY           SKY/WX    TMP DP  RH WIND       PRES   REMARKS
BURLINGTON     CLEAR     41  33  73 N10       30.09R
FAIRFIELD *    CLEAR     36  32  87 NW7       30.11R WCI  30
FORT MADISON * CLEAR     39  34  81 NW5       30.10R
KEOKUK *       CLEAR     41  34  75 N5        30.08S
OSKALOOSA *      N/A     36  32  87 NW7       30.12R WCI  30
CENTERVILLE *  CLEAR     37  36  93 NW7       30.12S WCI  32
OTTUMWA        CLEAR     35  33  92 NW7       30.10S WCI  29
WASHINGTON *   CLEAR     39  36  87 NW6       30.11S WCI  35
$$

ABBREVIATIONS USED IN REMARKS
   TC - TEMPERATURES IN CELSIUS
  WCI - WIND CHILL INDEX
   HX - HEAT INDEX
  VSB - VISIBILITY
$$




USA.gov is the U.S. government's official web portal to all federal, state and local government web resources and services.